Weather History for KBGR - November, 2012

Change the Weather History Date:

Thursday, November 1, 2012

  Actual Average Record
Temperature  
Mean Temperature 47 °F 42 °F  
Max Temperature 53 °F 51 °F 71 °F (1974)
Min Temperature 40 °F 33 °F 18 °F (1940)
Degree Days  
Heating Degree Days 18 23  
Month to date heating degree days 18 23  
Since 1 July heating degree days 701 849  
Cooling Degree Days 0 0  
Month to date cooling degree days 0 0  
Year to date cooling degree days 395 318  
Moisture  
Dew Point 45 °F    
Average Humidity 89    
Maximum Humidity 100    
Minimum Humidity 77    
Precipitation  
Precipitation T in 0.14 in 1.62 in (1989)
Month to date precipitation T 0.14  
Year to date precipitation 37.58 34.39  
Snow  
Snow 0.00 in 0.00 in 3.00 in (1951)
Month to date snowfall 0.0 0.0  
Since 1 July snowfall 0.0 0.1  
Since 1 September snowfall 0.0 0.1  
Snow Depth 0.00 in    
Sea Level Pressure  
Sea Level Pressure 29.52 in    
Wind  
Wind Speed 4 mph (SSE)    
Max Wind Speed 8 mph    
Max Gust Speed 10 mph    
Visibility 10 miles    
Events      
T = Trace of Precipitation, MM = Missing Value Source: NWS Daily Summary

Daily Weather History Graph

Daily Weather History Graph

Search for Another Location

Airport or City:

Trip Planner

Search our weather history database for the weather conditions in past years. The results will help you decide how hot, cold, wet, or windy it might be!

Date:

Astronomy

Nov. 01, 2012 Rise Set
Actual Time 7:13 AM EDT 5:23 PM EDT
Civil Twilight 6:43 AM EDT 5:53 PM EDT
Nautical Twilight 6:08 AM EDT 6:28 PM EDT
Astronomical Twilight 5:34 AM EDT 7:02 PM EDT
Moon 7:11 PM EDT 9:49 AM EDT
Length of Visible Light 11h 10m
Length of Day
10h 09m
Waning Gibbous, 93% of the Moon is Illuminated
Nov 1
Waning Gibbous
Nov 6
Last Quarter
Nov 13
New
Nov 20
First Quarter
Nov 28
Full

Hourly Weather History & Observations

Time (EDT) Temp. Windchill Dew Point Humidity Pressure Visibility Wind Dir Wind Speed Gust Speed Precip Events Conditions
12:53 AM 48.9 °F - 48.0 °F 97% 29.55 in 10.0 mi South 3.5 mph - N/A   Mostly Cloudy
1:38 AM 48.2 °F - 48.2 °F 100% 29.56 in 10.0 mi South 3.5 mph - N/A   Mostly Cloudy
1:53 AM 48.9 °F - 48.0 °F 97% 29.56 in 10.0 mi South 6.9 mph - N/A   Mostly Cloudy
2:53 AM 50.0 °F - 48.0 °F 93% 29.55 in 10.0 mi South 4.6 mph - N/A   Mostly Cloudy
3:53 AM 48.9 °F - 46.9 °F 93% 29.54 in 10.0 mi South 3.5 mph - N/A   Mostly Cloudy
4:53 AM 46.9 °F - 46.0 °F 97% 29.54 in 10.0 mi SE 3.5 mph - N/A   Mostly Cloudy
5:53 AM 46.9 °F - 46.9 °F 100% 29.54 in 10.0 mi SSE 3.5 mph - N/A   Scattered Clouds
6:53 AM 46.9 °F - 46.9 °F 100% 29.54 in 10.0 mi SE 3.5 mph - N/A   Mostly Cloudy
7:53 AM 50.0 °F - 46.4 °F 87% 29.56 in 10.0 mi South 6.9 mph - N/A   Overcast
8:53 AM 50.0 °F - 46.0 °F 86% 29.56 in 10.0 mi South 4.6 mph - N/A   Overcast
9:53 AM 51.1 °F - 46.0 °F 83% 29.56 in 10.0 mi South 4.6 mph - N/A   Overcast
10:53 AM 51.8 °F - 46.4 °F 82% 29.56 in 10.0 mi South 4.6 mph - N/A   Overcast
11:53 AM 53.1 °F - 46.0 °F 77% 29.54 in 10.0 mi SE 4.6 mph - N/A   Overcast
12:13 PM 51.8 °F - 46.4 °F 82% 29.53 in 10.0 mi SE 3.5 mph - N/A   Overcast
12:53 PM 52.0 °F - 46.0 °F 80% 29.52 in 10.0 mi South 3.5 mph - 0.00 in   Overcast
1:38 PM 51.8 °F - 44.6 °F 76% 29.51 in 10.0 mi South 4.6 mph - N/A   Overcast
1:53 PM 52.0 °F - 45.0 °F 77% 29.50 in 10.0 mi South 5.8 mph - N/A   Overcast
2:53 PM 52.0 °F - 45.0 °F 77% 29.49 in 10.0 mi South 3.5 mph - N/A   Overcast
3:53 PM 53.1 °F - 46.0 °F 77% 29.49 in 10.0 mi Calm Calm - N/A   Mostly Cloudy
4:33 PM 51.8 °F - 46.4 °F 82% 29.49 in 10.0 mi SE 3.5 mph - N/A   Mostly Cloudy
4:53 PM 51.1 °F - 46.0 °F 83% 29.49 in 10.0 mi Calm Calm - N/A   Mostly Cloudy
5:53 PM 48.0 °F - 45.0 °F 89% 29.49 in 10.0 mi SSE 5.8 mph - N/A   Scattered Clouds
6:53 PM 45.0 °F 42.6 °F 42.1 °F 90% 29.49 in 10.0 mi SSE 4.6 mph - N/A   Scattered Clouds
7:53 PM 45.0 °F 41.8 °F 43.0 °F 93% 29.50 in 10.0 mi South 5.8 mph - N/A   Partly Cloudy
8:53 PM 44.1 °F - 42.1 °F 93% 29.51 in 10.0 mi Calm Calm - N/A   Partly Cloudy
9:53 PM 44.1 °F 41.5 °F 42.1 °F 93% 29.50 in 10.0 mi South 4.6 mph - N/A   Mostly Cloudy
10:53 PM 43.0 °F 41.3 °F 41.0 °F 93% 29.50 in 10.0 mi South 3.5 mph - N/A   Scattered Clouds
11:53 PM 44.1 °F 41.5 °F 42.1 °F 93% 29.50 in 10.0 mi South 4.6 mph - N/A   Mostly Cloudy